Location: Unspecified
(0.0000°N, 0.0000°E)
Time: 15:31:16
(UTC+00:00)

Explorer 11/Cluster Stage 4 - Pass Details

Date: 25 February 2024
Orbit: 465 x 1219 km, 28.8° (Epoch: 24 April)

Event Time Altitude Azimuth Distance (km) Brightness Sun altitude
Rises 21:05:24 0° 245° (WSW) 3,633 10.8 -42.4°
Reaches altitude 10° 21:07:54 10° 247° (WSW) 2,787 10.0 -43.0°
Enters shadow 21:10:52 29° 253° (WSW) 1,861 8.8 -43.8°
